Regional Weather Roundup
Issued by NWS

Home | Current Version | Previous Version | Graphics & Text | Print | Product List | Glossary On
Versions: 1 2 3 4 5 6 7 8 9 10 11 12 13 14 15 16 17 18 19 20 21 22 23 24 25 26 27 28 29 30 31 32 33 34 35 36 37 38 39 40 41 42 43 44 45 46 47 48 49 50
527
ASUS43 KLOT 261504
RWRIL

ILLINOIS REGIONAL WEATHER ROUNDUP
NATIONAL WEATHER SERVICE CHICAGO/ROMEOVILLE IL
1000 AM CDT MON JUN 26 2017

NOTE: "FAIR" INDICATES FEW OR NO CLOUDS BELOW 12,000 FEET WITH NO
SIGNIFICANT WEATHER AND/OR OBSTRUCTIONS TO VISIBILITY.

* THESE STATIONS ARE NOT UNDER NWS QUALITY CONTROL. THEY ALSO MAY NOT
  REPORT WEATHER SUCH AS PRECIPITATION OR FOG.

ILZ001-002-007-009-015-016-024-261600-
NORTHWEST ILLINOIS

CITY           SKY/WX    TMP DP  RH WIND       PRES   REMARKS
MOLINE         PTSUNNY   64  51  62 W13       30.17F
STERLING*      SUNNY     67  51  56 W7        30.14F
SAVANNA*       SUNNY     65  50  58 NW8       30.13F
$$

ILZ003-004-008-010-011-017-018-261600-
NORTH CENTRAL ILLINOIS

CITY           SKY/WX    TMP DP  RH WIND       PRES   REMARKS
ROCKFORD       MOSUNNY   68  49  50 W12       30.13S
FREEPORT*      MOSUNNY   64  49  58 NW10G16   30.14F
ROCHELLE*      MOSUNNY   65  48  55 W13G18    30.13F
DE KALB*       PTSUNNY   64  48  55 W12       30.13S
PERU*          MOSUNNY   64  49  57 W13       30.15F
$$

ILZ005-006-012>014-019>023-261600-
NORTHEAST ILLINOIS

CITY           SKY/WX    TMP DP  RH WIND       PRES   REMARKS
CHICAGO-OHARE  MOSUNNY   67  44  43 W14       30.09F
CHICAGO-MIDWAY MOSUNNY   69  44  40 W15G22    30.10F
AURORA         NOT AVBL
LANSING*       SUNNY     68  43  39 W10G17    30.12S
JOLIET*        SUNNY     70  46  41 W9G22     30.13S
WAUKEGAN       MOSUNNY   64  50  60 W8        30.08F
DUPAGE AIRPORT MOSUNNY   66  48  52 NW12      30.11S
WHEELING       MOSUNNY   65  48  54 W13       30.10F
MORRIS*        SUNNY     69  45  41 W17       30.12F
ROMEOVILLE*    MOSUNNY   68  42  39 W15       30.12F
NORTHERLY ISL    N/A     67  41  38 SW9         N/A
$$

LMZ740>746-261600-
SOUTHERN LAKE MICHIGAN

STATION/POSITION SKY/WX   TEMP    WIND        PRES    VSBY  WAVE
                          AIR SEA DIR/SP/G                  HT/PER
                          (F)     (DEG/KT/KT) (MB)    (MI)  (FT/S)
SOUTHERN BUOY              59 61  300/ 14/ 16 1018.5          3/ 5
WILMETTE HARBOR            63 64  270/ 10/ 12   N/A           1/ 2
HARRISON CRIB              66     290/ 16/ 18   N/A
BURNHAM HARBOR             66                   N/A
CALUMET HARBOR             67     260/  5/  9 1018.9F
BURNS HARBOR               64     260/ 11/ 13 1020.0S
MICHIGAN CITY              62     250/ 13/ 14   N/A
MICHIGAN CITY 6N           62 66  260/ 10/ 14   N/A           3/ 3
ST. JOSEPH                 63 69  290/ 10/ 14 1019.2F         3/ 5
$$

ILZ025>027-034>036-040-047-049-050-058-095>099-261600-
WEST-CENTRAL ILLINOIS

CITY           SKY/WX    TMP DP  RH WIND       PRES   REMARKS
QUINCY         PTSUNNY   67  50  54 N7        30.22S
GALESBURG*     CLOUDY    62  50  66 W8        30.20F
MACOMB*        CLOUDY    57  54  88 NW6       30.22F
JACKSONVILLE*  SUNNY     70  46  42 NW12      30.21S
PITTSFIELD*    SUNNY     71  46  41 N9        30.22F
$$

ILZ028>032-037-038-041>044-048-051>054-059>061-261600-
CENTRAL ILLINOIS

CITY           SKY/WX    TMP DP  RH WIND       PRES   REMARKS
PONTIAC        PTSUNNY   69  43  39 W18G25    30.17S
BLOOMINGTON    PTSUNNY   67  44  43 W13       30.19S
DECATUR        SUNNY     70  47  43 W12       30.19F
PEORIA         CLOUDY    64  48  56 W8        30.18F
LACON*         CLOUDY    63  49  61 NW7       30.17F
LINCOLN*       MOSUNNY   71  47  41 NW8G17    30.19F
SPRINGFIELD    SUNNY     73  50  44 W10       30.20S
TAYLORVILLE    SUNNY     71  47  43 W10       30.21S
$$

ILZ033-039-045-046-055>057-062-063-261600-
EAST-CENTRAL ILLINOIS

CITY           SKY/WX    TMP DP  RH WIND       PRES   REMARKS
CHAMPAIGN      SUNNY     70  46  42 NW13G20   30.18S
RANTOUL*       SUNNY     71  47  41 NW13      30.17F
MATTOON        SUNNY     71  53  52 NW12      30.18S
PARIS*         SUNNY     69  53  57 NW10      30.19R
$$

ILZ079-100>102-261600-
SOUTHWEST ILLINOIS

CITY           SKY/WX    TMP DP  RH WIND       PRES   REMARKS
ALTON          MOSUNNY   70  54  56 W10       30.23R
BELLEVILLE     SUNNY     74  48  39 W5        30.22F
CAHOKIA*       SUNNY     75  45  34 S6        30.21F
SPARTA*        SUNNY     73  46  38 SW3       30.23F
$$

ILZ064>066-069>071-074>076-080>082-084>086-088>090-092>094-261600-
SOUTH-CENTRAL ILLINOIS

CITY           SKY/WX    TMP DP  RH WIND       PRES   REMARKS
CARBONDALE     CLOUDY    73  51  46 W3        30.23S
CAIRO*         CLOUDY    72  50  46 CALM      30.23F
EFFINGHAM*     SUNNY     73  50  45 SW10      30.22S
MARION         MOSUNNY   72  50  46 NW6       30.24S
MT. VERNON     SUNNY     72  50  45 W7        30.22F
CENTRALIA*     SUNNY     73  52  47 W7        30.22S
SALEM*         SUNNY     74  46  37 W10       30.22S
METROPOLIS*    MOSUNNY   73  47  39 CALM      30.24S
$$

ILZ067-068-072-073-078-083-087-091-261600-
SOUTHEAST ILLINOIS

CITY           SKY/WX    TMP DP  RH WIND       PRES   REMARKS
LAWRENCEVILLE  SUNNY     72  50  45 W10       30.20F
FLORA*         SUNNY     73  47  39 NW8       30.22S
FAIRFIELD*     SUNNY     72  47  41 CALM      30.21S
HARRISBURG*    MOSUNNY   73  51  46 NW6       30.23S
ROBINSON*      SUNNY     70  52  52 W7        30.20S
CARMI*         SUNNY     72  52  48 NW5       30.22S
$$

ABBREVIATIONS USED IN REMARKS
   TC - TEMPERATURE IN CELSIUS
  WCI - WIND CHILL INDEX
   HX - HEAT INDEX
  VSB - VISIBILITY
$$





USA.gov is the U.S. government's official web portal to all federal, state and local government web resources and services.